DAL1582 SVMC-TBPB

Flight info

Callsign DAL1582
Flight time N/A
Altitude FL330
Route ASIBA1.MAU VUNUM TOROP OPLUD BGI
Aircraft MD82/M-S/NAEXS

Departure

Time 2026-05-07 02:29
Airport La Chinita International Airport (SVMC)

Arrival

Time N/A
Airport Grantley Adams International Airport (TBPB)
Time Latitude Longitude Altitude Speed Heading
2026-05-07 02:08 10.56125 -71.72233 243 ft 0 kts 176°
2026-05-07 02:18 10.56124 -71.72233 243 ft 0 kts 176°
2026-05-07 02:19 10.56136 -71.72234 243 ft 2 kts 176°
2026-05-07 02:19 10.56147 -71.72235 243 ft 3 kts 176°
2026-05-07 02:19 10.56167 -71.72236 243 ft 3 kts 176°
2026-05-07 02:19 10.56188 -71.72237 243 ft 3 kts 173°
2026-05-07 02:20 10.56205 -71.72247 243 ft 3 kts 124°
2026-05-07 02:20 10.56210 -71.72265 243 ft 2 kts 86°
2026-05-07 02:21 10.56211 -71.72261 243 ft 1 kts 71°
2026-05-07 02:21 10.56212 -71.72255 243 ft 1 kts 87°
2026-05-07 02:22 10.56210 -71.72250 243 ft 1 kts 117°
2026-05-07 02:22 10.56206 -71.72246 243 ft 1 kts 135°
2026-05-07 02:22 10.56197 -71.72244 243 ft 1 kts 180°
2026-05-07 02:22 10.56192 -71.72246 243 ft 1 kts 199°
2026-05-07 02:23 10.56187 -71.72252 243 ft 2 kts 237°
2026-05-07 02:23 10.56183 -71.72294 243 ft 7 kts 281°
2026-05-07 02:23 10.56194 -71.72349 243 ft 10 kts 281°
2026-05-07 02:23 10.56206 -71.72397 243 ft 11 kts 289°
2026-05-07 02:24 10.56215 -71.72472 243 ft 7 kts 220°
2026-05-07 02:24 10.56186 -71.72491 243 ft 7 kts 202°
2026-05-07 02:24 10.56109 -71.72522 243 ft 10 kts 200°
2026-05-07 02:24 10.56060 -71.72539 243 ft 12 kts 198°
2026-05-07 02:25 10.55978 -71.72566 243 ft 14 kts 198°
2026-05-07 02:25 10.55881 -71.72599 243 ft 16 kts 199°
2026-05-07 02:25 10.55771 -71.72639 243 ft 18 kts 200°
2026-05-07 02:25 10.55608 -71.72700 243 ft 20 kts 200°
2026-05-07 02:26 10.55517 -71.72734 243 ft 21 kts 200°
2026-05-07 02:26 10.55375 -71.72787 243 ft 23 kts 200°
2026-05-07 02:26 10.55166 -71.72865 243 ft 25 kts 204°
2026-05-07 02:26 10.55044 -71.72987 243 ft 21 kts 238°
2026-05-07 02:27 10.55032 -71.73047 243 ft 9 kts 281°
2026-05-07 02:27 10.55058 -71.73073 243 ft 8 kts 359°
2026-05-07 02:27 10.55079 -71.73069 243 ft 1 kts 18°
2026-05-07 02:27 10.55181 -71.73033 243 ft 31 kts 20°
2026-05-07 02:28 10.55503 -71.72915 243 ft 70 kts 17°
2026-05-07 02:28 10.56151 -71.72675 243 ft 125 kts 20°
2026-05-07 02:28 10.57133 -71.72306 245 ft 175 kts 21°
2026-05-07 02:28 10.58250 -71.71851 616 ft 187 kts 23°
2026-05-07 02:29 10.59462 -71.71326 1422 ft 184 kts 24°
2026-05-07 02:29 10.60233 -71.70987 2010 ft 177 kts 24°
2026-05-07 02:29 10.61301 -71.70430 2500 ft 182 kts 33°
2026-05-07 02:29 10.62395 -71.69618 2713 ft 200 kts 41°
2026-05-07 02:30 10.63424 -71.68059 3257 ft 204 kts 76°
2026-05-07 02:30 10.63523 -71.66633 3835 ft 200 kts 100°
2026-05-07 02:30 10.63388 -71.65273 4580 ft 193 kts 96°
2026-05-07 02:30 10.63330 -71.63844 4870 ft 213 kts 94°
2026-05-07 02:31 10.63368 -71.62273 5148 ft 232 kts 88°
2026-05-07 02:31 10.63521 -71.60568 5291 ft 262 kts 85°
2026-05-07 02:31 10.63691 -71.59289 5579 ft 271 kts 83°
2026-05-07 02:31 10.64109 -71.56758 6570 ft 277 kts 82°
2026-05-07 02:32 10.64460 -71.54824 7320 ft 279 kts 82°
2026-05-07 02:32 10.64690 -71.53530 7849 ft 280 kts 82°
2026-05-07 02:32 10.65034 -71.51557 8542 ft 285 kts 83°
2026-05-07 02:32 10.65327 -71.49806 9153 ft 288 kts 83°
2026-05-07 02:33 10.65602 -71.48162 9738 ft 290 kts 83°
2026-05-07 02:33 10.66068 -71.45394 10530 ft 301 kts 83°
2026-05-07 02:33 10.66433 -71.43229 10876 ft 317 kts 83°
2026-05-07 02:33 10.66812 -71.40994 11531 ft 321 kts 83°
2026-05-07 02:34 10.67063 -71.39511 11972 ft 324 kts 83°
2026-05-07 02:34 10.67434 -71.37240 12640 ft 327 kts 84°
2026-05-07 02:34 10.67565 -71.36436 12878 ft 328 kts 84°
2026-05-07 02:34 10.67658 -71.35857 13044 ft 329 kts 84°
2026-05-07 02:35 10.68016 -71.33648 13639 ft 333 kts 84°
2026-05-07 02:35 10.68403 -71.31303 14149 ft 341 kts 83°
2026-05-07 02:35 10.68812 -71.28921 14752 ft 344 kts 83°
2026-05-07 02:35 10.69364 -71.25724 15598 ft 348 kts 83°
2026-05-07 02:36 10.69764 -71.23324 16154 ft 352 kts 83°
2026-05-07 02:36 10.70184 -71.20827 16793 ft 354 kts 83°
2026-05-07 02:36 10.70460 -71.19190 17218 ft 355 kts 83°
2026-05-07 02:36 10.70873 -71.16701 17783 ft 359 kts 83°
2026-05-07 02:37 10.71429 -71.13390 18538 ft 363 kts 83°
2026-05-07 02:37 10.71630 -71.12183 18841 ft 363 kts 83°
2026-05-07 02:37 10.72079 -71.09435 19561 ft 362 kts 83°
2026-05-07 02:37 10.72503 -71.06892 20043 ft 368 kts 83°
2026-05-07 02:38 10.73096 -71.03423 20609 ft 376 kts 83°
2026-05-07 02:38 10.73247 -71.02540 20733 ft 378 kts 83°
2026-05-07 02:38 10.73670 -71.00065 21225 ft 378 kts 83°
2026-05-07 02:38 10.74228 -70.96681 22231 ft 371 kts 84°
2026-05-07 02:39 10.74509 -70.94939 22605 ft 372 kts 83°
2026-05-07 02:39 10.74933 -70.92384 23101 ft 374 kts 83°
2026-05-07 02:39 10.75381 -70.89744 23571 ft 377 kts 83°
2026-05-07 02:39 10.75985 -70.86214 24061 ft 384 kts 83°
2026-05-07 02:40 10.76439 -70.83528 24521 ft 385 kts 83°
2026-05-07 02:40 10.76667 -70.82158 24730 ft 387 kts 83°
2026-05-07 02:40 10.77336 -70.78131 25250 ft 393 kts 83°
2026-05-07 02:40 10.77796 -70.75385 25672 ft 393 kts 83°
2026-05-07 02:41 10.77949 -70.74471 25826 ft 393 kts 83°
2026-05-07 02:41 10.78562 -70.70815 26318 ft 396 kts 83°
2026-05-07 02:41 10.79182 -70.67128 26789 ft 399 kts 83°
2026-05-07 02:41 10.79645 -70.64357 27038 ft 403 kts 83°
2026-05-07 02:42 10.79957 -70.62480 27213 ft 405 kts 83°
2026-05-07 02:42 10.80117 -70.61518 27315 ft 406 kts 83°
2026-05-07 02:42 10.81201 -70.54919 28038 ft 410 kts 83°
2026-05-07 02:42 10.81665 -70.52084 28328 ft 411 kts 83°
2026-05-07 02:43 10.82137 -70.49211 28645 ft 411 kts 83°
2026-05-07 02:43 10.82616 -70.46311 28857 ft 414 kts 83°
2026-05-07 02:43 10.83091 -70.43438 29100 ft 415 kts 83°
2026-05-07 02:43 10.83574 -70.40542 29525 ft 411 kts 83°
2026-05-07 02:44 10.83895 -70.38633 29769 ft 410 kts 83°
2026-05-07 02:44 10.84212 -70.36754 29866 ft 412 kts 83°
2026-05-07 02:44 10.84378 -70.35772 29908 ft 414 kts 83°